Adak, AK

3:58 PM HDT on August 28, 2016 (GMT -0900)
Adak

Weather History for PADK - January, 2013

Change the Weather History Date:

Tuesday, January 29, 2013

  Actual Average Record
Temperature  
Mean Temperature 26 °F -  
Max Temperature 30 °F 37 °F 48 °F (1968)
Min Temperature 23 °F 28 °F 15 °F (2011)
Degree Days  
Heating Degree Days 38    
Moisture  
Dew Point 17 °F    
Average Humidity 65    
Maximum Humidity 80    
Minimum Humidity 40    
Precipitation  
Precipitation 0.00 in - - ()
Sea Level Pressure  
Sea Level Pressure 29.27 in    
Wind  
Wind Speed 14 mph (WNW)    
Max Wind Speed 23 mph    
Max Gust Speed 29 mph    
Visibility 10 miles    
Events      
Averages and records for this station are not official NWS values.
T = Trace of Precipitation, MM = Missing Value Source: NWS Daily Summary

Daily Weather History Graph

Daily Weather History Graph

Search for Another Location

Airport or City:

Trip Planner

Search our weather history database for the weather conditions in past years. The results will help you decide how hot, cold, wet, or windy it might be!

Date:

Astronomy

Jan. 29, 2013 Rise Set
Actual Time 9:29 AM HST 6:30 PM HST
Civil Twilight 8:52 AM HST 7:07 PM HST
Nautical Twilight 8:12 AM HST 7:48 PM HST
Astronomical Twilight 7:32 AM HST 8:27 PM HST
Moon 10:12 PM HST 10:06 AM HST
Length of Visible Light 10h 14m
Length of Day
9h 00m
Waning Gibbous, 92% of the Moon is Illuminated
Jan 29
Waning Gibbous
Feb 3
Last Quarter
Feb 9
New
Feb 17
First Quarter
Feb 25
Full

Hourly Weather History & Observations

Time (HST) Temp. Windchill Dew Point Humidity Pressure Visibility Wind Dir Wind Speed Gust Speed Precip Events Conditions
12:16 AM 26.6 °F 13.8 °F 17.6 °F 69% 29.18 in 10.0 mi North 17.3 mph 27.6 mph N/A   Overcast
12:36 AM 26.6 °F 12.0 °F 17.6 °F 69% 29.18 in 10.0 mi North 23.0 mph 28.8 mph N/A   Overcast
12:56 AM 26.6 °F 14.3 °F 17.6 °F 69% 29.18 in 10.0 mi North 16.1 mph 23.0 mph N/A   Overcast
1:16 AM 26.6 °F 12.4 °F 17.6 °F 69% 29.18 in 10.0 mi North 21.9 mph 27.6 mph N/A   Overcast
1:36 AM 26.6 °F 12.0 °F 19.4 °F 74% 29.18 in 10.0 mi North 23.0 mph - N/A   Overcast
1:56 AM 26.6 °F 14.3 °F 19.4 °F 74% 29.18 in 8.0 mi NNW 16.1 mph 23.0 mph N/A   Mostly Cloudy
2:16 AM 26.6 °F 14.7 °F 17.6 °F 69% 29.18 in 10.0 mi NW 15.0 mph 25.3 mph N/A   Overcast
2:36 AM 26.6 °F 13.4 °F 15.8 °F 64% 29.18 in 10.0 mi NNW 18.4 mph 21.9 mph N/A   Overcast
2:56 AM 26.6 °F 14.7 °F 15.8 °F 64% 29.19 in 10.0 mi NNW 15.0 mph 21.9 mph N/A   Overcast
3:16 AM 26.6 °F 14.7 °F 15.8 °F 64% 29.19 in 10.0 mi North 15.0 mph 25.3 mph N/A   Overcast
3:36 AM 26.6 °F 16.2 °F 15.8 °F 64% 29.19 in 10.0 mi North 11.5 mph - N/A   Overcast
3:56 AM 26.6 °F 15.7 °F 19.4 °F 74% 29.19 in 10.0 mi North 12.7 mph 21.9 mph N/A   Overcast
4:16 AM 26.6 °F 13.1 °F 17.6 °F 69% 29.19 in 10.0 mi NNW 19.6 mph 24.2 mph N/A   Overcast
4:36 AM 26.6 °F 14.7 °F 15.8 °F 64% 29.19 in 10.0 mi NNW 15.0 mph 26.5 mph N/A   Overcast
4:56 AM 26.6 °F 13.8 °F 15.8 °F 64% 29.19 in 10.0 mi NNW 17.3 mph 20.7 mph N/A   Overcast
5:16 AM 26.6 °F 15.7 °F 19.4 °F 74% 29.20 in 10.0 mi North 12.7 mph 23.0 mph N/A   Overcast
5:36 AM 26.6 °F 14.7 °F 17.6 °F 69% 29.20 in 10.0 mi NNW 15.0 mph 21.9 mph N/A   Overcast
5:56 AM 26.6 °F 15.2 °F 12.2 °F 55% 29.20 in 10.0 mi NW 13.8 mph 23.0 mph N/A   Overcast
6:16 AM 26.6 °F 13.4 °F 15.8 °F 64% 29.20 in 10.0 mi NNW 18.4 mph - N/A   Overcast
6:36 AM 26.6 °F 18.2 °F 17.6 °F 69% 29.20 in 10.0 mi West 8.1 mph - N/A   Overcast
6:56 AM 26.6 °F 19.1 °F 17.6 °F 69% 29.20 in 10.0 mi West 6.9 mph - N/A   Overcast
7:16 AM 26.6 °F 14.7 °F 19.4 °F 74% 29.21 in 8.0 mi NNW 15.0 mph 21.9 mph N/A   Overcast
7:36 AM 26.6 °F 16.8 °F 15.8 °F 64% 29.22 in 10.0 mi WNW 10.4 mph - N/A   Overcast
7:56 AM 26.6 °F 20.0 °F 12.2 °F 55% 29.22 in 10.0 mi WNW 5.8 mph - N/A   Overcast
8:16 AM 26.6 °F 15.7 °F 15.8 °F 64% 29.22 in 10.0 mi West 12.7 mph 18.4 mph N/A   Overcast
8:36 AM 26.6 °F 16.8 °F 15.8 °F 64% 29.23 in 10.0 mi NW 10.4 mph - N/A   Overcast
8:56 AM 28.4 °F 18.5 °F 17.6 °F 64% 29.23 in 9.0 mi WNW 11.5 mph 16.1 mph N/A   Overcast
9:16 AM 26.6 °F 16.8 °F 19.4 °F 74% 29.24 in 8.0 mi WNW 10.4 mph - N/A   Overcast
9:36 AM 26.6 °F 16.2 °F 15.8 °F 64% 29.24 in 10.0 mi WNW 11.5 mph - N/A   Overcast
9:56 AM 26.6 °F 19.1 °F 17.6 °F 69% 29.24 in 7.0 mi NNW 6.9 mph - N/A   Mostly Cloudy
10:16 AM 26.6 °F 20.0 °F 17.6 °F 69% 29.24 in 5.0 mi WNW 5.8 mph - N/A   Overcast
10:36 AM 26.6 °F 17.5 °F 19.4 °F 74% 29.25 in 3.0 mi WNW 9.2 mph 17.3 mph N/A   Mostly Cloudy
10:56 AM 26.6 °F 18.2 °F 19.4 °F 74% 29.25 in 9.0 mi WNW 8.1 mph - N/A   Mostly Cloudy
11:16 AM 26.6 °F 19.1 °F 19.4 °F 74% 29.26 in 9.0 mi NW 6.9 mph - N/A   Overcast
11:36 AM 28.4 °F 18.5 °F 17.6 °F 64% 29.26 in 10.0 mi WNW 11.5 mph 17.3 mph N/A   Overcast
11:56 AM 28.4 °F 19.1 °F 15.8 °F 59% 29.26 in 10.0 mi WNW 10.4 mph - N/A   Overcast
12:16 PM 28.4 °F 18.5 °F 19.4 °F 69% 29.26 in 10.0 mi NW 11.5 mph - N/A   Overcast
12:36 PM 28.4 °F 19.1 °F 19.4 °F 69% 29.27 in 10.0 mi WNW 10.4 mph - N/A   Overcast
12:56 PM 28.4 °F 19.7 °F 17.6 °F 64% 29.28 in 10.0 mi WNW 9.2 mph - N/A   Overcast
1:16 PM 28.4 °F 17.0 °F 15.8 °F 59% 29.28 in 10.0 mi WNW 15.0 mph - N/A   Overcast
1:36 PM 28.4 °F 18.5 °F 15.8 °F 59% 29.28 in 10.0 mi WNW 11.5 mph - N/A   Overcast
1:56 PM 28.4 °F 18.5 °F 14.0 °F 55% 29.28 in 10.0 mi WNW 11.5 mph - N/A   Overcast
2:16 PM 28.4 °F 16.6 °F 14.0 °F 55% 29.28 in 10.0 mi West 16.1 mph - N/A   Overcast
2:36 PM 28.4 °F 16.2 °F 14.0 °F 55% 29.29 in 10.0 mi West 17.3 mph - N/A   Overcast
2:56 PM 28.4 °F 16.2 °F 17.6 °F 64% 29.29 in 10.0 mi West 17.3 mph 21.9 mph N/A   Overcast
3:16 PM 28.4 °F 17.0 °F 17.6 °F 64% 29.29 in 10.0 mi West 15.0 mph - N/A   Overcast
3:36 PM 30.2 °F 19.3 °F 15.8 °F 55% 29.29 in 10.0 mi West 15.0 mph - N/A   Overcast
3:56 PM 30.2 °F 18.9 °F 15.8 °F 55% 29.29 in 10.0 mi West 16.1 mph - N/A   Overcast
4:16 PM 28.4 °F 18.0 °F 12.2 °F 51% 29.29 in 10.0 mi West 12.7 mph - N/A   Overcast
4:36 PM 30.2 °F 19.8 °F 14.0 °F 51% 29.30 in 10.0 mi West 13.8 mph 20.7 mph N/A   Overcast
4:56 PM 28.4 °F 17.5 °F 17.6 °F 64% 29.30 in 10.0 mi West 13.8 mph 18.4 mph N/A   Overcast
5:16 PM 28.4 °F 18.5 °F 17.6 °F 64% 29.31 in 10.0 mi West 11.5 mph - N/A   Overcast
5:36 PM 28.4 °F 17.5 °F 15.8 °F 59% 29.31 in 10.0 mi West 13.8 mph 18.4 mph N/A   Overcast
5:56 PM 26.6 °F 13.1 °F 21.2 °F 80% 29.32 in 2.5 mi West 19.6 mph 25.3 mph N/A   Overcast
6:16 PM 26.6 °F 17.5 °F 19.4 °F 74% 29.32 in 10.0 mi West 9.2 mph - N/A   Overcast
6:36 PM 28.4 °F 15.1 °F 17.6 °F 64% 29.32 in 10.0 mi WNW 20.7 mph - N/A   Mostly Cloudy
6:56 PM 28.4 °F 17.5 °F 21.2 °F 74% 29.33 in 10.0 mi West 13.8 mph - N/A   Overcast
7:16 PM 26.6 °F 17.5 °F 21.2 °F 80% 29.33 in 10.0 mi West 9.2 mph - N/A   Overcast
7:36 PM 28.4 °F 17.5 °F 19.4 °F 69% 29.34 in 10.0 mi West 13.8 mph - N/A   Overcast
7:56 PM 26.6 °F 18.2 °F 19.4 °F 74% 29.34 in 10.0 mi WSW 8.1 mph - N/A   Overcast
8:16 PM 26.6 °F 16.8 °F 19.4 °F 74% 29.35 in 10.0 mi WSW 10.4 mph - N/A   Overcast
8:36 PM 26.6 °F 15.7 °F 14.0 °F 59% 29.35 in 10.0 mi West 12.7 mph - N/A   Mostly Cloudy
8:56 PM 26.6 °F 15.2 °F 15.8 °F 64% 29.35 in 10.0 mi West 13.8 mph - N/A   Partly Cloudy
9:16 PM 26.6 °F 17.5 °F 15.8 °F 64% 29.36 in 10.0 mi West 9.2 mph - N/A   Mostly Cloudy
9:36 PM 26.6 °F 17.5 °F 14.0 °F 59% 29.36 in 10.0 mi West 9.2 mph - N/A   Scattered Clouds
9:56 PM 26.6 °F 18.2 °F 14.0 °F 59% 29.37 in 10.0 mi West 8.1 mph - N/A   Partly Cloudy
10:16 PM 24.8 °F 16.9 °F 15.8 °F 69% 29.37 in 10.0 mi West 6.9 mph - N/A   Scattered Clouds
10:36 PM 24.8 °F 17.9 °F 15.8 °F 69% 29.37 in 10.0 mi West 5.8 mph - N/A   Partly Cloudy
10:56 PM 23.0 °F 13.1 °F 15.8 °F 74% 29.38 in 10.0 mi West 9.2 mph - N/A   Scattered Clouds
11:16 PM 26.6 °F 18.2 °F 15.8 °F 64% 29.38 in 10.0 mi West 8.1 mph - N/A   Partly Cloudy
11:36 PM 24.8 °F 17.9 °F 15.8 °F 69% 29.39 in 10.0 mi WSW 5.8 mph - N/A   Mostly Cloudy
11:56 PM 24.8 °F 17.9 °F 15.8 °F 69% 29.39 in 10.0 mi West 5.8 mph - N/A   Overcast